Voltar ao catálogo

THOR BURNER 2 R/B

AtivoSSO
NORAD 5556·ROCKET BODY·🇺🇸 United States

Lançado Oct 14, 1971 de Vandenberg Space Force Base

Loading…

Próximas Passagens (próximas 24 horas)

TLE

AtualizadoSource: Space-Track

Época: Sep 14, 2026, 05:01 UTC

1 05556U 71087B   26257.20949751  .00000053  00000-0  43305-4 0  9990
2 05556  99.1166 229.0237 0060812 265.3954  94.0276 14.24063221847205

Acompanhe THOR BURNER 2 R/B em tempo real com AllMySat

Download on the App Store